Location: Waco, TX
(31.5480°N, 97.1670°W)
Time: 09:04:24
(UTC-05:00)

ISS - Pass Details

Date: 26 May 2018
Orbit: 402 x 407 km, 51.6° (Epoch: 23 May)

Event Time Altitude Azimuth Distance (km) Brightness Sun altitude
Rises 03:35:52 0° 316° (NW) 2,313 - -28.8°
Reaches altitude 10° 03:37:57 10° 319° (NW) 1,452 - -28.5°
Maximum altitude 03:41:12 75° 45° (NE) 418 - -28.1°
Drops below altitude 10° 03:44:26 10° 131° (SE) 1,445 - -27.7°
Sets 03:46:30 0° 133° (SE) 2,300 - -27.4°
